KM4KMS Weather Reports


time (UTC)temp
C
wind
direction
speed
KPH
gust
KPH
rain 1hr
cm
rain 24hr
cm
rain mn
cm
humidity
%
barometer
mb
20260906003843 28 349 1.6 1.6 0.00 0.56 0.56 84 1010.6
20260906003338 27 332 0.0 0.0 0.00 0.56 0.56 83 1010.7
20260906002833 27 356 0.0 0.0 0.00 0.56 0.56 85 1010.6
20260906002333 28 7 0.0 0.0 0.00 0.56 0.56 84 1010.6
20260906001829 28 358 0.0 0.0 0.00 0.56 0.56 84 1010.8
20260906001324 28 342 0.0 1.6 0.00 0.56 0.56 83 1010.9
20260906000819 28 312 1.6 1.6 0.00 0.56 0.56 83 1010.8
20260906000314 28 349 0.0 0.0 0.00 0.56 0.56 82 1010.8
20260905235808 28 11 0.0 0.0 0.00 0.56 0.56 83 1011.0
20260905235306 29 12 0.0 0.0 0.00 0.56 0.56 81 1011.1
20260905234758 29 7 0.0 0.0 0.00 0.56 0.56 81 1011.1
20260905234253 30 7 0.0 0.0 0.00 0.56 0.56 80 1010.9
20260905233748 30 9 0.0 0.0 0.00 0.56 0.56 76 1011.1
20260905233247 30 7 0.0 0.0 0.00 0.56 0.56 75 1011.3
20260905232742 30 9 0.0 0.0 0.00 0.56 0.56 76 1011.2
20260905232238 30 8 0.0 0.0 0.00 0.56 0.56 76 1011.4
20260905231734 31 4 0.0 0.0 0.00 0.56 0.56 78 1011.4
20260905231229 31 12 0.0 0.0 0.00 0.56 0.56 75 1011.3
20260905230725 31 13 0.0 0.0 0.00 0.56 0.56 73 1011.2
20260905230222 31 31 0.0 0.0 0.00 0.56 0.56 72 1011.1
20260905225722 32 56 0.0 0.0 0.00 0.56 0.56 70 1011.1
20260905225217 32 10 0.0 0.0 0.00 0.56 0.56 69 1011.1
20260905224716 32 8 0.0 0.0 0.00 0.56 0.56 70 1011.1
20260905224212 32 1 0.0 0.0 0.00 0.56 0.56 69 1011.0
20260905223708 32 19 0.0 0.0 0.00 0.56 0.56 70 1010.9
20260905223205 32 7 0.0 1.6 0.00 0.56 0.56 70 1011.0
20260905222700 32 11 0.0 1.6 0.00 0.56 0.56 68 1010.9
20260905222159 32 10 0.0 1.6 0.00 0.56 0.56 66 1010.9
20260905221655 32 355 3.2 3.2 0.00 0.56 0.56 66 1011.1
20260905221152 32 346 1.6 3.2 0.00 0.56 0.56 67 1010.8
20260905220647 32 353 3.2 4.8 0.00 0.56 0.56 64 1011.0
20260905220143 33 335 1.6 3.2 0.00 0.56 0.56 61 1011.0
20260905215643 33 329 1.6 3.2 0.00 0.56 0.56 63 1010.8
20260905215139 32 309 4.8 8.0 0.00 0.56 0.56 62 1011.0
20260905214634 32 349 3.2 8.0 0.00 0.56 0.56 65 1010.9
20260905214129 32 340 4.8 8.0 0.00 0.56 0.56 60 1011.2
20260905213625 33 344 6.4 4.8 0.00 0.56 0.56 62 1011.0
20260905213120 33 339 6.4 8.0 0.00 0.56 0.56 62 1011.0
20260905212615 33 263 4.8 4.8 0.00 0.56 0.56 60 1011.0
20260905212114 33 344 8.0 9.7 0.00 0.56 0.56 62 1011.1
20260905211609 33 327 6.4 8.0 0.00 0.56 0.56 60 1010.9
20260905211105 34 345 4.8 8.0 0.00 0.56 0.56 59 1010.9
20260905210601 35 270 3.2 3.2 0.00 0.56 0.56 55 1011.1
20260905210056 35 241 1.6 3.2 0.00 0.56 0.56 58 1011.0
20260905205555 34 274 1.6 1.6 0.00 0.56 0.56 58 1011.0
20260905205055 34 349 4.8 4.8 0.00 0.56 0.56 58 1011.2
20260905204549 33 268 6.4 11.3 0.00 0.56 0.56 57 1011.2
20260905204044 34 311 3.2 4.8 0.00 0.56 0.56 57 1011.1
20260905203544 33 324 1.6 3.2 0.00 0.56 0.56 58 1011.3
20260905203040 33 350 3.2 8.0 0.00 0.56 0.56 57 1011.4
20260905202535 34 340 4.8 8.0 0.00 0.56 0.56 59 1011.4
20260905202031 35 265 6.4 8.0 0.00 0.56 0.56 58 1011.4
20260905201526 33 317 0.0 3.2 0.00 0.56 0.56 58 1011.6
20260905201025 33 325 4.8 4.8 0.00 0.56 0.56 58 1011.6
20260905200521 34 261 3.2 8.0 0.00 0.56 0.56 56 1011.7
20260905200020 33 341 4.8 4.8 0.00 0.56 0.56 57 1011.7
20260905195514 33 340 4.8 3.2 0.00 0.56 0.56 56 1011.8
20260905195010 33 336 3.2 3.2 0.00 0.56 0.56 56 1012.0
20260905194504 33 343 4.8 8.0 0.00 0.56 0.56 57 1011.9
20260905194004 34 262 3.2 4.8 0.00 0.56 0.56 58 1012.1
20260905193458 33 322 1.6 3.2 0.00 0.56 0.56 52 1012.1
20260905192953 33 310 3.2 4.8 0.00 0.56 0.56 57 1012.0
20260905192448 33 307 4.8 4.8 0.00 0.56 0.56 58 1012.0
20260905191944 34 341 3.2 1.6 0.00 0.56 0.56 58 1012.3
20260905191438 33 227 1.6 4.8 0.00 0.56 0.56 55 1012.4
20260905190937 33 159 3.2 3.2 0.00 0.56 0.56 57 1012.3
20260905190435 34 290 1.6 4.8 0.00 0.56 0.56 56 1012.5
20260905185934 34 349 1.6 3.2 0.00 0.56 0.56 54 1012.6
20260905185430 33 348 1.6 3.2 0.00 0.56 0.56 57 1012.4
20260905184928 33 169 3.2 3.2 0.00 0.56 0.56 56 1012.6
20260905184423 33 94 1.6 1.6 0.00 0.56 0.56 56 1012.8
20260905183922 33 208 0.0 1.6 0.00 0.56 0.56 56 1012.6
20260905183416 33 266 3.2 4.8 0.00 0.56 0.56 57 1012.8
20260905182912 32 234 6.4 8.0 0.00 0.56 0.56 57 1012.9
20260905182411 33 221 3.2 3.2 0.00 0.56 0.56 56 1012.8
20260905181907 32 46 1.6 1.6 0.00 0.56 0.56 57 1013.1
20260905181407 31 181 3.2 8.0 0.00 0.56 0.56 61 1012.9
20260905180905 32 211 4.8 8.0 0.00 0.56 0.56 61 1013.3
20260905180401 32 240 4.8 8.0 0.00 0.56 0.56 56 1013.1
20260905175856 31 250 4.8 3.2 0.00 0.56 0.56 64 1013.3
20260905175355 31 285 6.4 8.0 0.00 0.56 0.56 59 1013.3
20260905174850 31 140 4.8 8.0 0.00 0.56 0.56 59 1013.3
20260905174346 32 221 4.8 4.8 0.00 0.56 0.56 59 1013.4
20260905173842 31 255 3.2 9.7 0.00 0.56 0.56 59 1013.5
20260905173337 31 200 4.8 4.8 0.00 0.56 0.56 60 1013.4
20260905172832 31 170 6.4 9.7 0.00 0.56 0.56 62 1013.2
20260905172330 31 250 4.8 8.0 0.00 0.56 0.56 59 1013.4
20260905171827 31 240 8.0 9.7 0.00 0.56 0.56 59 1013.4
20260905171323 30 143 6.4 9.7 0.00 0.56 0.56 57 1013.5
20260905170819 30 186 6.4 11.3 0.00 0.56 0.56 60 1013.6
20260905170315 30 187 6.4 9.7 0.00 0.56 0.56 60 1013.6
20260905165814 30 167 8.0 9.7 0.00 0.56 0.56 60 1013.6
20260905165310 31 218 4.8 9.7 0.00 0.56 0.56 65 1013.8
20260905164809 31 244 9.7 9.7 0.00 0.56 0.56 59 1013.9
20260905164304 30 155 4.8 8.0 0.00 0.56 0.56 58 1013.8
20260905163800 30 149 4.8 9.7 0.00 0.56 0.56 58 1014.1
20260905163256 30 120 8.0 11.3 0.00 0.56 0.56 61 1014.3
20260905162752 30 198 6.4 8.0 0.00 0.56 0.56 61 1014.3
20260905162251 30 104 3.2 4.8 0.00 0.56 0.56 62 1014.1
20260905161746 30 126 4.8 11.3 0.00 0.56 0.56 62 1014.3
20260905161245 29 114 8.0 12.9 0.00 0.56 0.56 63 1014.1
20260905160743 29 123 12.9 14.5 0.00 0.56 0.56 63 1014.0
20260905160237 29 119 9.7 14.5 0.00 0.56 0.56 65 1014.0
20260905155733 29 134 9.7 11.3 0.00 0.56 0.56 63 1013.9
20260905155231 29 107 8.0 11.3 0.00 0.56 0.56 62 1014.1
20260905154725 28 97 11.3 12.9 0.00 0.56 0.56 66 1014.2
20260905154222 28 94 6.4 11.3 0.00 0.56 0.56 67 1014.3
20260905153717 28 93 8.0 11.3 0.00 0.56 0.56 71 1014.3
20260905153213 28 95 6.4 12.9 0.00 0.56 0.56 67 1014.1
20260905152707 28 124 9.7 14.5 0.00 0.56 0.56 69 1014.1
20260905152202 27 138 11.3 12.9 0.00 0.56 0.56 70 1014.1
20260905151701 27 176 9.7 11.3 0.00 0.56 0.56 73 1014.1
20260905151157 27 112 6.4 9.7 0.00 0.56 0.56 73 1014.2
20260905150652 27 213 4.8 12.9 0.00 0.56 0.56 74 1014.3
20260905150151 26 101 3.2 9.7 0.00 0.56 0.56 76 1014.0
20260905145649 27 99 9.7 9.7 0.00 0.56 0.56 75 1014.3
20260905145149 27 122 3.2 4.8 0.00 0.56 0.56 77 1014.6
20260905144643 26 163 3.2 8.0 0.00 0.56 0.56 78 1014.6
20260905144142 26 93 4.8 8.0 0.00 0.56 0.56 80 1014.7
20260905143638 26 105 4.8 4.8 0.00 0.56 0.56 76 1014.7
20260905143137 26 73 1.6 9.7 0.00 0.56 0.56 78 1014.8
20260905142631 26 67 4.8 8.0 0.00 0.56 0.56 77 1014.9
20260905142130 25 101 8.0 9.7 0.00 0.56 0.56 78 1015.0
20260905141625 25 140 8.0 9.7 0.00 0.56 0.56 78 1014.9
20260905141121 25 107 9.7 11.3 0.00 0.56 0.56 78 1015.0
20260905140616 25 109 12.9 12.9 0.00 0.56 0.56 81 1014.9
20260905140115 25 123 11.3 11.3 0.00 0.56 0.56 82 1014.9
20260905135611 24 93 4.8 12.9 0.00 0.56 0.56 83 1014.9
20260905135106 24 98 4.8 11.3 0.00 0.56 0.56 84 1014.9
20260905134601 24 143 11.3 12.9 0.00 0.56 0.56 83 1015.2
20260905134059 23 122 12.9 14.5 0.00 0.56 0.56 83 1014.9
20260905133555 23 97 3.2 12.9 0.00 0.56 0.56 86 1015.0
20260905133054 23 103 11.3 16.1 0.00 0.56 0.56 87 1015.3
20260905132548 23 89 8.0 11.3 0.00 0.56 0.56 88 1015.3
20260905132043 22 74 3.2 9.7 0.00 0.56 0.56 93 1015.6
20260905131539 21 64 3.2 8.0 0.00 0.56 0.56 99 1015.7
20260905131034 21 105 8.0 11.3 0.00 0.56 0.56 99 1015.6
20260905130533 20 110 9.7 12.9 0.00 0.56 0.56 99 1015.6
20260905130029 20 133 11.3 14.5 0.00 0.56 0.56 99 1015.6
20260905125528 20 114 6.4 8.0 0.00 0.56 0.56 99 1015.7
20260905125024 20 100 11.3 17.7 0.00 0.56 0.56 99 1015.8
20260905124520 21 87 16.1 9.7 0.00 0.56 0.56 99 1015.6
20260905124015 21 84 4.8 4.8 0.00 0.56 0.56 99 1015.2
20260905123510 21 42 1.6 4.8 0.00 0.56 0.56 99 1015.2
20260905123007 21 23 1.6 3.2 0.00 0.56 0.56 99 1014.9
20260905122502 21 21 1.6 1.6 0.00 0.56 0.56 99 1015.0
20260905121956 21 41 1.6 3.2 0.00 0.56 0.56 99 1015.0
20260905121452 21 1 0.0 1.6 0.00 0.56 0.56 99 1015.2
20260905120950 20 88 1.6 3.2 0.00 0.56 0.56 99 1015.0
20260905120445 21 2 1.6 4.8 0.48 0.56 0.56 99 1015.3
20260905115940 20 154 3.2 3.2 0.48 0.56 0.56 99 1015.0
20260905115439 20 113 4.8 4.8 0.00 0.48 0.48 99 1014.7
20260905114929 21 73 1.6 3.2 0.00 0.48 0.48 99 1014.2
20260905114428 21 84 3.2 8.0 0.00 0.48 0.48 99 1014.1
20260905113922 21 83 1.6 4.8 0.00 0.48 0.48 99 1014.2
20260905113417 21 81 0.0 0.0 0.00 0.48 0.48 99 1014.2
20260905112913 20 64 0.0 3.2 0.00 0.48 0.48 99 1014.2
20260905112408 20 100 3.2 4.8 0.00 0.48 0.48 99 1014.0
20260905111902 20 78 1.6 3.2 0.00 0.48 0.48 99 1014.1
20260905111356 20 115 4.8 4.8 0.00 0.48 0.48 99 1013.9
20260905110856 20 42 0.0 3.2 0.00 0.48 0.48 99 1014.1
20260905110350 20 57 3.2 8.0 0.00 0.48 0.48 99 1014.1
20260905105845 20 115 6.4 4.8 0.00 0.48 0.48 99 1014.1
20260905105345 20 85 1.6 4.8 0.00 0.48 0.48 99 1014.1
20260905104839 20 44 3.2 4.8 0.00 0.48 0.48 99 1013.8
20260905104336 20 92 1.6 3.2 0.00 0.48 0.48 99 1013.8
20260905103834 20 87 1.6 4.8 0.00 0.48 0.48 99 1013.7
20260905095126 21 316 35.4 41.8 2.87 0.48 0.48 99 1014.3
20260905094622 21 316 35.4 41.8 2.87 0.48 0.48 99 1014.3
20260905094120 25 267 27.4 43.5 0.30 0.05 0.05 90 1013.4
20260905093614 24 313 16.1 24.1 0.00 0.00 0.00 90 1013.7
20260905093111 24 262 9.7 8.0 0.00 0.00 0.00 98 1013.4
20260905092605 24 329 1.6 3.2 0.00 0.00 0.00 98 1013.1
20260905092102 24 19 0.0 4.8 0.00 0.00 0.00 98 1012.9
20260905091600 24 356 0.0 0.0 0.00 0.00 0.00 98 1012.6
20260905091054 24 339 8.0 8.0 0.00 0.00 0.00 97 1012.6
20260905090549 23 348 0.0 1.6 0.00 0.00 0.00 99 1012.7
20260905090044 23 280 1.6 1.6 0.00 0.00 0.00 99 1012.6
20260905085543 22 288 1.6 3.2 0.00 0.00 0.00 99 1012.9
20260905085039 22 5 0.0 0.0 0.00 0.00 0.00 99 1012.4
20260905084538 23 359 1.6 1.6 0.00 0.00 0.00 99 1012.6
20260905084032 23 170 1.6 1.6 0.00 0.00 0.00 99 1012.5
20260905083522 23 24 0.0 0.0 0.00 0.00 0.00 99 1012.4
20260905083019 23 5 0.0 0.0 0.00 0.00 0.00 98 1012.7
20260905082514 23 9 0.0 0.0 0.00 0.00 0.00 98 1012.4
20260905082010 23 352 0.0 1.6 0.00 0.00 0.00 99 1012.2
20260905081509 23 329 0.0 0.0 0.00 0.00 0.00 99 1012.5
20260905081009 23 343 0.0 0.0 0.00 0.00 0.00 99 1012.3
20260905080458 23 25 0.0 0.0 0.00 0.00 0.00 99 1012.3
20260905075957 23 9 0.0 0.0 0.00 0.00 0.00 99 1012.2
20260905075452 23 0 0.0 0.0 0.00 0.00 0.00 99 1012.2
20260905074950 23 0 0.0 0.0 0.00 0.00 0.00 99 1012.5
20260905074446 23 359 0.0 0.0 0.00 0.00 0.00 99 1012.4
20260905073942 23 353 0.0 0.0 0.00 0.00 0.00 99 1012.5
20260905073436 23 353 0.0 0.0 0.00 0.00 0.00 99 1012.6
20260905072932 23 353 0.0 0.0 0.00 0.00 0.00 99 1012.5
20260905072427 23 353 0.0 0.0 0.00 0.00 0.00 99 1012.7
20260905071923 23 353 0.0 0.0 0.00 0.00 0.00 99 1012.7
20260905071419 23 352 0.0 0.0 0.00 0.00 0.00 99 1012.8
20260905070918 23 353 0.0 0.0 0.00 0.00 0.00 99 1012.8
20260905070415 23 8 0.0 0.0 0.00 0.00 0.00 99 1012.9
20260905065909 23 12 0.0 0.0 0.00 0.00 0.00 99 1013.0
20260905065407 23 32 0.0 0.0 0.00 0.00 0.00 99 1013.2
20260905064903 23 33 0.0 0.0 0.00 0.00 0.00 99 1012.9
20260905064357 23 20 0.0 0.0 0.00 0.00 0.00 99 1013.2
20260905063856 23 18 0.0 0.0 0.00 0.00 0.00 98 1013.2
20260905063352 24 19 0.0 0.0 0.00 0.00 0.00 98 1013.3
20260905062848 23 14 0.0 0.0 0.00 0.00 0.00 99 1013.2
20260905062343 23 24 0.0 1.6 0.00 0.00 0.00 99 1013.5
20260905061837 23 1 0.0 0.0 0.00 0.00 0.00 99 1013.6
20260905061332 24 6 0.0 0.0 0.00 0.00 0.00 99 1013.7
20260905060826 24 3 0.0 0.0 0.00 0.00 0.00 99 1013.4
20260905060323 24 347 0.0 0.0 0.00 0.00 0.00 99 1013.6
20260905055822 23 4 0.0 0.0 0.00 0.00 0.00 98 1013.6
20260905055317 24 8 0.0 0.0 0.00 0.00 0.00 98 1013.9
20260905054816 24 54 0.0 1.6 0.00 0.00 0.00 99 1013.6
20260905054313 24 65 0.0 1.6 0.00 0.00 0.00 99 1013.8
20260905053812 24 9 0.0 0.0 0.00 0.00 0.00 99 1013.7
20260905053308 24 347 0.0 0.0 0.00 0.00 0.00 99 1013.8
20260905052808 23 22 0.0 0.0 0.00 0.00 0.00 99 1013.6
20260905052306 24 38 0.0 0.0 0.00 0.00 0.00 99 1013.6
20260905051801 24 37 0.0 0.0 0.00 0.00 0.00 99 1013.9
20260905051258 24 14 0.0 0.0 0.00 0.00 0.00 98 1013.6
20260905050755 24 51 0.0 1.6 0.00 0.00 0.00 99 1013.6
20260905050251 24 68 0.0 1.6 0.00 0.00 0.00 99 1013.5
20260905045751 23 4 0.0 0.0 0.00 0.00 0.00 99 1013.7
20260905045246 24 357 1.6 1.6 0.00 0.00 0.00 99 1013.8
20260905044741 24 17 0.0 0.0 0.00 0.00 0.00 99 1014.0
20260905044237 24 80 1.6 1.6 0.00 0.00 0.00 98 1013.9
20260905043735 24 23 0.0 0.0 0.00 0.00 0.00 97 1013.9
20260905043236 25 11 0.0 0.0 0.00 0.00 0.00 96 1013.9
20260905042730 25 11 0.0 0.0 0.00 0.00 0.00 96 1013.9
20260905042230 25 5 0.0 0.0 0.00 0.00 0.00 96 1013.8
20260905041725 25 357 0.0 0.0 0.00 0.00 0.00 95 1013.9
20260905041221 25 343 0.0 0.0 0.00 0.00 0.00 95 1013.7
20260905040715 25 359 0.0 0.0 0.00 0.00 0.00 94 1013.9
20260905040215 25 5 0.0 0.0 0.00 0.00 0.00 93 1013.8
20260905035714 25 6 1.6 3.2 0.00 0.00 0.00 93 1013.7
20260905035211 26 359 0.0 1.6 0.00 0.00 0.00 92 1013.8
20260905034707 26 354 1.6 1.6 0.00 0.00 0.00 91 1013.9
20260905034207 25 345 0.0 1.6 0.00 0.00 0.00 92 1013.9
20260905033705 26 333 0.0 1.6 0.00 0.00 0.00 92 1013.8
20260905033201 26 197 1.6 3.2 0.00 0.00 0.00 91 1014.1
20260905032655 25 63 0.0 1.6 0.00 0.00 0.00 93 1014.1
20260905032150 26 0 0.0 0.0 0.00 0.00 0.00 95 1014.4
20260905031646 26 18 0.0 0.0 0.00 0.00 0.00 95 1014.1
20260905031141 26 7 1.6 1.6 0.00 0.00 0.00 95 1014.1
20260905030636 26 5 0.0 0.0 0.00 0.00 0.00 96 1014.1
20260905030131 26 356 1.6 3.2 0.00 0.00 0.00 97 1014.2
20260905025626 26 350 3.2 3.2 0.00 0.00 0.00 96 1014.0
20260905025122 26 353 0.0 0.0 0.00 0.00 0.00 97 1014.0
20260905024618 26 2 0.0 0.0 0.00 0.00 0.00 97 1013.9
20260905024113 25 2 0.0 0.0 0.00 0.00 0.00 98 1014.1
20260905023608 25 2 0.0 0.0 0.00 0.00 0.00 97 1013.9
20260905023102 25 11 0.0 0.0 0.00 0.00 0.00 96 1013.8
20260905022601 25 19 0.0 0.0 0.00 0.00 0.00 96 1014.0
20260905022057 26 21 0.0 0.0 0.00 0.00 0.00 95 1013.9
20260905021557 26 15 0.0 0.0 0.00 0.00 0.00 94 1013.9
20260905021052 26 15 0.0 0.0 0.00 0.00 0.00 94 1013.8
20260905020551 26 32 0.0 1.6 0.00 0.00 0.00 93 1013.7
20260905020047 26 2 0.0 0.0 0.00 0.00 0.00 92 1013.7
20260905015544 26 0 1.6 1.6 0.00 0.00 0.00 91 1013.5
20260905015039 27 5 0.0 0.0 0.00 0.00 0.00 90 1013.6
20260905014534 27 358 0.0 0.0 0.00 0.00 0.00 89 1013.4
20260905014024 27 352 1.6 1.6 0.00 0.00 0.00 89 1013.7
20260905013520 27 347 1.6 1.6 0.00 0.00 0.00 90 1013.4
20260905013016 26 359 0.0 0.0 0.00 0.00 0.00 92 1013.4
20260905012510 26 12 0.0 0.0 0.00 0.00 0.00 92 1013.3
20260905012007 27 7 0.0 0.0 0.00 0.00 0.00 91 1013.2
20260905011503 27 358 0.0 0.0 0.00 0.00 0.00 90 1013.2
20260905010958 27 1 1.6 1.6 0.00 0.00 0.00 91 1013.3
20260905010458 27 341 1.6 1.6 0.00 0.00 0.00 90 1013.4
20260905005954 27 35 0.0 0.0 0.00 0.00 0.00 90 1013.2
20260905005449 27 134 3.2 3.2 0.00 0.00 0.00 86 1013.2
20260905004944 27 6 0.0 0.0 0.00 0.00 0.00 85 1013.0
20260905004440 28 2 0.0 0.0 0.00 0.00 0.00 85 1012.9